Location: G?julap?du
(16.5372°N, 81.0979°E)
Time: 15:32:11
(UTC+00:00)

ISS - Pass Details

Date: 14 April 2026
Orbit: 414 x 424 km, 51.6° (Epoch: 11 May)

Event Time Altitude Azimuth Distance (km) Brightness Sun altitude
Exits shadow 23:28:40 20° 284° (WNW) 1,023 -2.3 -13.0°
Maximum altitude 23:29:40 23° 311° (NW) 932 -2.3 -12.8°
Drops below altitude 10° 23:32:24 10° 6° (N) 1,490 -0.7 -12.1°
Sets 23:34:47 0° 21° (NNE) 2,357 0.6 -11.6°
